Regional Weather Roundup
Issued by NWS

Home | Current Version | Previous Version | Text Only | Print | Product List | Glossary On
Versions: 1 2 3 4 5 6 7 8 9 10 11 12 13 14 15 16 17 18 19 20 21 22 23 24 25 26 27 28 29 30 31 32 33 34 35 36 37 38 39 40 41 42 43 44 45 46 47 48 49 50
000
ASUS43 KTOP 032308
RWRKS

WEATHER ROUNDUP FOR KANSAS
NATIONAL WEATHER SERVICE GOODLAND KS
500 PM CST SAT DEC 03 2016

NOTE:  "FAIR" INDICATES FEW OR NO CLOUDS BELOW 12,000 FEET WITH NO
SIGNIFICANT WEATHER AND/OR OBSTRUCTIONS TO VISIBILITY.

KSZ001>006-013>018-027>032-041>047-040000-
NORTHWEST KANSAS

CITY           SKY/WX    TMP DP  RH WIND       PRES   REMARKS
GOODLAND       CLEAR     37  27  67 S7        29.97S
HAYS           MIX PCPN  33  32  96 NE3       30.06F FOG
HILL CITY      LGT SNOW  33  32  96 SE5       30.06F FOG
RUSSELL        CLOUDY    35  35 100 SE3       30.05F FOG
$$

KSZ061>065-074>080-084>089-040000-
SOUTHWEST KANSAS

CITY           SKY/WX    TMP DP  RH WIND       PRES   REMARKS
DODGE CITY     LGT RAIN  38  37  97 SW7       30.03F FOG
ELKHART          N/A     36  29  76 S10         N/A  WCI  28
GARDEN CITY    CLOUDY    36  35  96 S3        30.00F FOG
GREAT BEND     LGT RAIN  38  37  97 SE7       30.06F FOG
LIBERAL        CLOUDY    39  34  81 S6        30.01S
PRATT          LGT RAIN  38  37  97 S5        30.07S
$$

KSZ066>073-081>083-090>101-040000-
SOUTHEAST KANSAS

CITY           SKY/WX    TMP DP  RH WIND       PRES   REMARKS
CHANUTE        LGT RAIN  48  39  71 SE3       30.13S
COFFEYVILLE    LGT RAIN  47  42  83 S3        30.13F
HUTCHINSON     LGT RAIN  41  39  93 SE6       30.09S FOG
MEDICINE LODGE   N/A     41  40  96 CALM      30.07F
NEWTON         LGT RAIN  42  37  82 SE5       30.10S
PARSONS        LGT RAIN  47  41  80 CALM      30.14S
WICHITA INTL   DRIZZLE   43  39  86 SE3       30.09F
WICHITA JABRA  CLOUDY    43  38  82 SE5       30.10S
WICHITA MCCONL CLOUDY    43  37  78 SE5       30.10S
WINFIELD       LGT RAIN  43  40  89 E5        30.11F
$$

KSZ007>012-019>026-033>040-048>060-102>105-040000-
NORTHEAST KANSAS

CITY           SKY/WX    TMP DP  RH WIND       PRES   REMARKS
CONCORDIA      LGT RAIN  35  35 100 SE9       30.09F FOG
EMPORIA        CLOUDY    44  36  73 SE3       30.11F
LAWRENCE       CLOUDY    45  34  65 E5        30.13F
MANHATTAN      LGT RAIN  39  36  89 N3        30.12F FOG
MARYSVILLE     RAIN      36  34  93 E7        30.11F
OLATHE IND     CLOUDY    47  32  56 SE7       30.14F
OLATHE EXE     CLOUDY    46  31  55 SE7       30.14F
SALINA         LGT RAIN  39  38  96 CALM      30.11S FOG
TOPEKA BILLARD CLOUDY    47  31  53 E3        30.14S
TOPEKA FORBES  CLOUDY    47  34  60 CALM      30.13S
$$



USA.gov is the U.S. government's official web portal to all federal, state and local government web resources and services.